User: anonymous
Location: Columbus
(29.5618°N, 96.6770°W)
Time: 22:49:58
(UTC-05:00)
Language:

Iridium 59 - Orbit

View from above orbital plane
View from above orbital plane
View from above satellite
View from above satellite

Ground track
Ground track

The orbit data is extracted from the following two-line orbital elements,

1 25275U 98019D   14106.50710467  .00000467  00000-0  15956-3 0  3080
2 25275 086.3985 051.2674 0002097 100.2793 259.8640 14.34219111840134
Epoch (UTC): 16 April 2014 12:10:13
Eccentricity: 0.0002097
inclination: 86.3985°
perigee height: 776 km
apogee height: 779 km
right ascension of ascending node: 51.2674°
argument of perigee: 100.2793°
revolutions per day: 14.34219111
mean anomaly at epoch: 259.8640°
orbit number at epoch: 84013

The dashed part of the orbit path shows where the satellite is in the earth's shadow,  

DLR